Liberia, Costa Rica

10:28 PM CST on August 17, 2017 (GMT -0600)
Daniel Oduber Quiros International

Weather History for MRLB - February, 2013

Change the Weather History Date:

Wednesday, February 20, 2013

  Actual Average Record
Temperature  
Mean Temperature 84 °F -  
Max Temperature 93 °F 91 °F 98 °F (2000)
Min Temperature 76 °F 75 °F 61 °F (2016)
Cooling Degree Days 20    
Growing Degree Days 34 (Base 50)    
Moisture  
Dew Point 63 °F    
Average Humidity 48    
Maximum Humidity 61    
Minimum Humidity 34    
Precipitation  
Precipitation 0.00 in - - ()
Sea Level Pressure  
Sea Level Pressure 29.77 in    
Wind  
Wind Speed 16 mph ()    
Max Wind Speed 25 mph    
Max Gust Speed 32 mph    
Visibility 8.5 miles    
Events      
Averages and records for this station are not official NWS values.
T = Trace of Precipitation, MM = Missing Value Source: Averaged Metar Reports

Daily Weather History Graph

Daily Weather History Graph

Search for Another Location

Airport or City:

Trip Planner

Search our weather history database for the weather conditions in past years. The results will help you decide how hot, cold, wet, or windy it might be!

Date:

Astronomy

Feb. 20, 2013 Rise Set
Actual Time 6:00 AM CST 5:51 PM CST
Civil Twilight 5:39 AM CST 6:12 PM CST
Nautical Twilight 5:14 AM CST 6:37 PM CST
Astronomical Twilight 4:49 AM CST 7:02 PM CST
Moon 1:42 PM CST (2/20) 1:49 AM CST (2/20)
Length of Visible Light 12h 33m
Length of Day
11h 50m
Waxing Gibbous, 76% of the Moon is Illuminated
Feb 20
Waxing Gibbous
Feb 25
Full
Mar 4
Last Quarter
Mar 11
New
Mar 19
First Quarter

Hourly Weather History & Observations

Time (CST) Temp. Heat Index Dew Point Humidity Pressure Visibility Wind Dir Wind Speed Gust Speed Precip Events Conditions
6:00 AM 77 °F - 62 °F 50% 29.80 in 12 mi ENE 15.0 mph - -  
6:00 AM 77.0 °F - 62.6 °F 61% 29.78 in - ENE 15.0 mph - N/A   Clear
7:00 AM 78.8 °F - 62.6 °F 57% 29.80 in - ENE 13.8 mph - N/A   Clear
8:00 AM 84.2 °F 85.0 °F 62.6 °F 48% 29.80 in - ENE 17.3 mph - N/A   Clear
9:00 AM 86 °F - 63 °F 35% 29.83 in 12 mi NE 18.4 mph - -  
9:00 AM 86.0 °F 86.6 °F 62.6 °F 45% 29.82 in - NE 18.4 mph - N/A   Clear
10:00 AM 87.8 °F 88.5 °F 62.6 °F 43% 29.81 in - ENE 20.7 mph - N/A   Clear
11:00 AM 91.4 °F 91.4 °F 60.8 °F 36% 29.80 in - ENE 20.7 mph - N/A   Clear
12:00 PM 93.2 °F 93.3 °F 60.8 °F 34% 29.77 in - ENE 15.0 mph 27.6 mph N/A   Clear
2:00 PM 91.4 °F 93.2 °F 64.4 °F 41% 29.72 in 6.2 mi ENE 18.4 mph - N/A   Partly Cloudy
3:00 PM 91.4 °F 93.2 °F 64.4 °F 41% 29.70 in 6.2 mi ENE 23.0 mph - N/A   Partly Cloudy
4:00 PM 89.6 °F 90.1 °F 62.6 °F 40% 29.70 in 6.2 mi ENE 25.3 mph - N/A   Partly Cloudy
5:00 PM 86.0 °F 86.6 °F 62.6 °F 45% 29.71 in - ENE 20.7 mph - N/A   Clear
6:00 PM 82.4 °F 83.4 °F 62.6 °F 51% 29.73 in - ENE 17.3 mph - N/A   Clear
7:00 PM 82.4 °F 83.9 °F 64.4 °F 54% 29.76 in - ENE 20.7 mph - N/A   Clear
8:00 PM 80.6 °F 82.7 °F 66.2 °F 61% 29.78 in - ENE 20.7 mph - N/A   Clear
9:00 PM 80.6 °F 82.7 °F 66.2 °F 61% 29.78 in - ENE 25.3 mph - N/A   Clear
10:00 PM 80.6 °F 82.3 °F 64.4 °F 58% 29.79 in - East 20.7 mph 32.2 mph N/A   Clear
11:00 PM 80.6 °F 82.3 °F 64.4 °F 58% 29.80 in - East 18.4 mph - N/A   Clear